Time,TemperatureF,DewpointF,PressureIn,WindDirection,WindDirectionDegrees,WindSpeedMPH,WindSpeedGustMPH,Humidity,HourlyPrecipIn,Conditions,Clouds,dailyrainin,SoftwareType,DateUTC
2013-03-29 00:03:00,28.0,24.9,30.26,SSE,152,0.0,0.0,88,0.00,,CLR,0.00,VWS V14.01,2013-03-29 05:03:00,
2013-03-29 00:09:00,27.9,24.8,30.26,SSE,152,0.0,0.0,88,0.00,,CLR,0.00,VWS V14.01,2013-03-29 05:09:00,
2013-03-29 00:14:00,27.8,24.7,30.26,SSE,151,0.0,0.0,88,0.00,,CLR,0.00,VWS V14.01,2013-03-29 05:14:00,
2013-03-29 00:19:00,27.7,24.9,30.26,SSE,151,0.0,0.0,89,0.00,,CLR,0.00,VWS V14.01,2013-03-29 05:19:00,
2013-03-29 00:24:00,27.7,24.9,30.26,SSE,151,0.0,0.0,89,0.00,,CLR,0.00,VWS V14.01,2013-03-29 05:24:00,
2013-03-29 00:29:00,27.8,25.0,30.26,SSE,152,0.0,0.0,89,0.00,,CLR,0.00,VWS V14.01,2013-03-29 05:29:00,
2013-03-29 00:34:00,27.8,25.0,30.26,SSE,151,0.0,0.0,89,0.00,,CLR,0.00,VWS V14.01,2013-03-29 05:34:00,
2013-03-29 00:39:00,27.8,25.0,30.26,SSE,151,0.0,0.0,89,0.00,,CLR,0.00,VWS V14.01,2013-03-29 05:39:00,
2013-03-29 00:45:00,27.8,25.0,30.26,SSE,151,0.0,0.0,89,0.00,,CLR,0.00,VWS V14.01,2013-03-29 05:45:00,
2013-03-29 00:50:00,27.9,25.1,30.26,SSE,151,0.0,0.0,89,0.00,,CLR,0.00,VWS V14.01,2013-03-29 05:50:00,
2013-03-29 00:55:00,27.9,25.1,30.26,SSE,151,0.0,0.0,89,0.00,,CLR,0.00,VWS V14.01,2013-03-29 05:55:00,
2013-03-29 01:00:00,27.9,25.1,30.26,SSE,152,0.0,0.0,89,0.00,,CLR,0.00,VWS V14.01,2013-03-29 06:00:00,
2013-03-29 01:06:00,27.8,24.7,30.26,SSE,151,0.0,0.0,88,0.00,,CLR,0.00,VWS V14.01,2013-03-29 06:06:00,
2013-03-29 01:11:00,27.8,25.0,30.26,SSE,152,0.0,0.0,89,0.00,,CLR,0.00,VWS V14.01,2013-03-29 06:11:00,
2013-03-29 01:16:00,27.8,25.0,30.26,SSE,152,0.0,0.0,89,0.00,,CLR,0.00,VWS V14.01,2013-03-29 06:16:00,
2013-03-29 01:22:00,28.0,25.2,30.26,SSE,152,0.0,0.0,89,0.00,,CLR,0.00,VWS V14.01,2013-03-29 06:22:00,
2013-03-29 01:28:00,28.3,25.5,30.26,SSE,151,0.0,0.0,89,0.00,,CLR,0.00,VWS V14.01,2013-03-29 06:28:00,
2013-03-29 01:33:00,28.4,25.6,30.26,SSE,151,0.0,0.0,89,0.00,,CLR,0.00,VWS V14.01,2013-03-29 06:33:00,
2013-03-29 01:38:00,28.6,25.8,30.26,SSE,152,0.0,0.0,89,0.00,,CLR,0.00,VWS V14.01,2013-03-29 06:38:00,
2013-03-29 01:43:00,28.8,26.0,30.26,SSE,152,0.0,0.0,89,0.00,,CLR,0.00,VWS V14.01,2013-03-29 06:43:00,
2013-03-29 01:48:00,29.2,26.1,30.26,SSE,151,0.0,0.0,88,0.00,,CLR,0.00,VWS V14.01,2013-03-29 06:48:00,
2013-03-29 01:54:00,29.3,26.2,30.26,SSE,152,0.0,0.0,88,0.00,,CLR,0.00,VWS V14.01,2013-03-29 06:54:00,
2013-03-29 01:59:00,29.3,25.9,30.26,SSE,152,0.0,0.0,87,0.00,,CLR,0.00,VWS V14.01,2013-03-29 06:59:00,
2013-03-29 02:04:00,29.3,25.9,30.26,SSE,152,0.0,0.0,87,0.00,,SCT070,0.00,VWS V14.01,2013-03-29 07:04:00,
2013-03-29 02:09:00,29.3,25.9,30.26,SSE,151,0.0,0.0,87,0.00,,SCT070,0.00,VWS V14.01,2013-03-29 07:09:00,
2013-03-29 02:14:00,29.3,25.9,30.26,SSE,151,0.0,0.0,87,0.00,,SCT070,0.00,VWS V14.01,2013-03-29 07:14:00,
2013-03-29 02:19:00,29.3,25.9,30.26,SSE,151,0.0,0.0,87,0.00,,SCT070,0.00,VWS V14.01,2013-03-29 07:19:00,
2013-03-29 02:25:00,29.3,25.9,30.26,SSE,151,0.0,0.0,87,0.00,,BKN070,0.00,VWS V14.01,2013-03-29 07:25:00,
2013-03-29 02:30:00,29.3,25.9,30.26,SSE,152,0.0,0.0,87,0.00,,BKN070,0.00,VWS V14.01,2013-03-29 07:30:00,
2013-03-29 02:35:00,29.4,26.3,30.26,SSE,151,0.0,0.0,88,0.00,,BKN070,0.00,VWS V14.01,2013-03-29 07:35:00,
2013-03-29 02:40:00,29.3,25.9,30.26,SSE,151,0.0,0.0,87,0.00,,BKN070,0.00,VWS V14.01,2013-03-29 07:40:00,
2013-03-29 02:45:00,29.4,26.3,30.26,SSE,151,0.0,0.0,88,0.00,,BKN070,0.00,VWS V14.01,2013-03-29 07:45:00,
2013-03-29 02:51:00,29.5,26.4,30.26,SSE,152,0.0,0.0,88,0.00,,BKN070,0.00,VWS V14.01,2013-03-29 07:51:00,
2013-03-29 02:56:00,29.6,26.5,30.26,SSE,151,0.0,0.0,88,0.00,,BKN070,0.00,VWS V14.01,2013-03-29 07:56:00,
2013-03-29 03:01:00,29.7,26.6,30.26,SSE,152,0.0,0.0,88,0.00,,BKN070,0.00,VWS V14.01,2013-03-29 08:01:00,
2013-03-29 03:06:00,29.8,26.4,30.26,SSE,152,0.0,0.0,87,0.00,,BKN070,0.00,VWS V14.01,2013-03-29 08:06:00,
2013-03-29 03:11:00,29.8,26.4,30.25,SSE,152,0.0,0.0,87,0.00,,BKN070,0.00,VWS V14.01,2013-03-29 08:11:00,
2013-03-29 03:17:00,29.7,26.0,30.25,SSE,152,0.0,0.0,86,0.00,,BKN070,0.00,VWS V14.01,2013-03-29 08:17:00,
2013-03-29 03:22:00,29.5,25.8,30.25,SSE,151,0.0,0.0,86,0.00,,OVC070,0.00,VWS V14.01,2013-03-29 08:22:00,
2013-03-29 03:28:00,29.3,25.6,30.25,SSE,151,0.0,0.0,86,0.00,,OVC070,0.00,VWS V14.01,2013-03-29 08:28:00,
2013-03-29 03:33:00,29.2,25.5,30.25,SSE,151,0.0,0.0,86,0.00,,OVC070,0.00,VWS V14.01,2013-03-29 08:33:00,
2013-03-29 03:38:00,29.2,25.5,30.25,SSE,152,0.0,0.0,86,0.00,,OVC070,0.00,VWS V14.01,2013-03-29 08:38:00,
2013-03-29 03:43:00,29.1,25.4,30.25,SSE,151,0.0,0.0,86,0.00,,OVC080,0.00,VWS V14.01,2013-03-29 08:43:00,
2013-03-29 03:48:00,29.1,25.4,30.25,SSE,151,0.0,0.0,86,0.00,,OVC080,0.00,VWS V14.01,2013-03-29 08:48:00,
2013-03-29 03:53:00,29.1,25.4,30.25,SSE,152,0.0,0.0,86,0.00,,OVC080,0.00,VWS V14.01,2013-03-29 08:53:00,
2013-03-29 03:58:00,29.1,25.4,30.25,SSE,151,0.0,0.0,86,0.00,,OVC080,0.00,VWS V14.01,2013-03-29 08:58:00,
2013-03-29 04:03:00,29.2,25.5,30.25,SSE,152,0.0,0.0,86,0.00,,OVC090,0.00,VWS V14.01,2013-03-29 09:03:00,
2013-03-29 04:09:00,29.3,25.9,30.25,SSE,152,0.0,0.0,87,0.00,,OVC090,0.00,VWS V14.01,2013-03-29 09:09:00,
2013-03-29 04:14:00,29.4,25.7,30.25,SSE,152,0.0,0.0,86,0.00,,OVC090,0.00,VWS V14.01,2013-03-29 09:14:00,
2013-03-29 04:20:00,29.5,25.8,30.25,SSE,151,0.0,0.0,86,0.00,,OVC090,0.00,VWS V14.01,2013-03-29 09:20:00,
2013-03-29 04:25:00,29.6,25.9,30.25,SSE,151,0.0,0.0,86,0.00,,OVC090,0.00,VWS V14.01,2013-03-29 09:25:00,
2013-03-29 04:31:00,29.5,25.8,30.25,SSE,152,0.0,0.0,86,0.00,,OVC090,0.00,VWS V14.01,2013-03-29 09:31:00,
2013-03-29 04:36:00,29.5,25.8,30.24,SSE,151,0.0,0.0,86,0.00,,OVC090,0.00,VWS V14.01,2013-03-29 09:36:00,
2013-03-29 04:41:00,29.6,25.9,30.24,SSE,151,0.0,0.0,86,0.00,,BKN090,0.00,VWS V14.01,2013-03-29 09:41:00,
2013-03-29 04:47:00,29.7,26.0,30.24,SSE,151,0.0,0.0,86,0.00,,BKN090,0.00,VWS V14.01,2013-03-29 09:47:00,
2013-03-29 04:53:00,29.8,26.1,30.24,SSE,151,0.0,0.0,86,0.00,,BKN090,0.00,VWS V14.01,2013-03-29 09:53:00,
2013-03-29 04:58:00,29.9,26.2,30.24,SSE,152,0.0,0.0,86,0.00,,BKN090,0.00,VWS V14.01,2013-03-29 09:58:00,
2013-03-29 05:03:00,30.1,26.4,30.24,SSE,151,0.0,0.0,86,0.00,,BKN090,0.00,VWS V14.01,2013-03-29 10:03:00,
2013-03-29 05:08:00,30.2,26.5,30.25,SSE,152,0.0,0.0,86,0.00,,BKN065,0.00,VWS V14.01,2013-03-29 10:08:00,
2013-03-29 05:14:00,30.2,26.2,30.24,SSE,152,0.0,0.0,85,0.00,,BKN065,0.00,VWS V14.01,2013-03-29 10:14:00,
2013-03-29 05:19:00,30.3,26.3,30.24,SSE,152,0.0,0.0,85,0.00,,BKN065,0.00,VWS V14.01,2013-03-29 10:19:00,
2013-03-29 05:25:00,30.2,26.2,30.24,SSE,151,0.0,0.0,85,0.00,,BKN055,0.00,VWS V14.01,2013-03-29 10:25:00,
2013-03-29 05:30:00,30.3,26.3,30.24,SSE,152,0.0,0.0,85,0.00,,BKN055,0.00,VWS V14.01,2013-03-29 10:30:00,
2013-03-29 05:35:00,30.3,26.3,30.24,SSE,151,0.0,0.0,85,0.00,,BKN055,0.00,VWS V14.01,2013-03-29 10:35:00,
2013-03-29 05:40:00,30.3,26.3,30.24,SSE,151,0.0,0.0,85,0.00,,BKN055,0.00,VWS V14.01,2013-03-29 10:40:00,
2013-03-29 05:45:00,30.4,26.7,30.24,SSE,152,0.0,0.0,86,0.00,,BKN055,0.00,VWS V14.01,2013-03-29 10:45:00,
2013-03-29 05:50:00,30.4,26.4,30.24,SSE,151,0.0,0.0,85,0.00,,BKN055,0.00,VWS V14.01,2013-03-29 10:50:00,
2013-03-29 05:55:00,30.4,26.4,30.24,SSE,152,0.0,0.0,85,0.00,,BKN055,0.00,VWS V14.01,2013-03-29 10:55:00,
2013-03-29 06:00:00,30.3,26.3,30.24,SSE,152,0.0,0.0,85,0.00,,BKN055,0.00,VWS V14.01,2013-03-29 11:00:00,
2013-03-29 06:06:00,30.2,26.2,30.24,SSE,151,0.0,0.0,85,0.00,,BKN055,0.00,VWS V14.01,2013-03-29 11:06:00,
2013-03-29 06:11:00,30.1,26.1,30.24,SSE,152,0.0,0.0,85,0.00,,BKN055,0.00,VWS V14.01,2013-03-29 11:11:00,
2013-03-29 06:17:00,30.0,26.3,30.24,SSE,152,0.0,0.0,86,0.00,,BKN055,0.00,VWS V14.01,2013-03-29 11:17:00,
2013-03-29 06:22:00,30.1,26.4,30.24,SSE,151,0.0,0.0,86,0.00,,SCT055,0.00,VWS V14.01,2013-03-29 11:22:00,
2013-03-29 06:27:00,30.2,26.5,30.24,SSE,152,0.0,0.0,86,0.00,,SCT055,0.00,VWS V14.01,2013-03-29 11:27:00,
2013-03-29 06:33:00,30.2,26.5,30.24,SSE,151,0.0,0.0,86,0.00,,SCT055,0.00,VWS V14.01,2013-03-29 11:33:00,
2013-03-29 06:38:00,30.3,26.6,30.24,SSE,152,0.0,0.0,86,0.00,,SCT055,0.00,VWS V14.01,2013-03-29 11:38:00,
2013-03-29 06:43:00,30.4,26.4,30.24,SSE,151,0.0,0.0,85,0.00,,BKN055,0.00,VWS V14.01,2013-03-29 11:43:00,
2013-03-29 06:48:00,30.4,26.4,30.24,SSE,152,0.0,0.0,85,0.00,,BKN055,0.00,VWS V14.01,2013-03-29 11:48:00,
2013-03-29 06:53:00,30.3,26.3,30.24,SSE,151,0.0,0.0,85,0.00,,BKN055,0.00,VWS V14.01,2013-03-29 11:53:00,
2013-03-29 06:59:00,30.3,26.3,30.24,SSE,151,0.0,0.0,85,0.00,,BKN055,0.00,VWS V14.01,2013-03-29 11:59:00,
2013-03-29 07:04:00,30.3,26.6,30.24,SSE,152,0.0,0.0,86,0.00,,OVC055,0.00,VWS V14.01,2013-03-29 12:04:00,
2013-03-29 07:09:00,30.3,26.3,30.24,SSE,151,0.0,0.0,85,0.00,,OVC055,0.00,VWS V14.01,2013-03-29 12:09:00,
2013-03-29 07:14:00,30.3,26.3,30.24,SSE,152,0.0,0.0,85,0.00,,OVC055,0.00,VWS V14.01,2013-03-29 12:14:00,
2013-03-29 07:19:00,30.2,26.2,30.24,SSE,152,0.0,0.0,85,0.00,,OVC055,0.00,VWS V14.01,2013-03-29 12:19:00,
2013-03-29 07:24:00,30.1,26.1,30.24,SSE,151,0.0,0.0,85,0.00,,,0.00,VWS V14.01,2013-03-29 12:24:00,
2013-03-29 07:29:00,30.0,26.0,30.24,SSE,151,0.0,0.0,85,0.00,,,0.00,VWS V14.01,2013-03-29 12:29:00,
2013-03-29 07:34:00,30.0,26.3,30.24,SSE,152,0.0,0.0,86,0.00,,,0.00,VWS V14.01,2013-03-29 12:34:00,
2013-03-29 07:39:00,30.1,26.4,30.24,SSE,152,0.0,0.0,86,0.00,,,0.00,VWS V14.01,2013-03-29 12:39:00,
2013-03-29 07:44:00,30.2,26.5,30.24,SSE,152,0.0,0.0,86,0.00,,,0.00,VWS V14.01,2013-03-29 12:44:00,
2013-03-29 07:50:00,30.4,26.7,30.24,SSE,152,0.0,0.0,86,0.00,,,0.00,VWS V14.01,2013-03-29 12:50:00,
2013-03-29 07:56:00,30.6,26.6,30.24,SSE,151,0.0,0.0,85,0.00,,,0.00,VWS V14.01,2013-03-29 12:56:00,
2013-03-29 08:01:00,30.8,26.8,30.25,SSE,151,0.0,0.0,85,0.00,,,0.00,VWS V14.01,2013-03-29 13:01:00,
2013-03-29 08:06:00,30.8,26.5,30.25,SSE,152,0.0,0.0,84,0.00,,,0.00,VWS V14.01,2013-03-29 13:06:00,
2013-03-29 08:11:00,31.0,26.7,30.25,SSE,152,0.0,1.0,84,0.00,,,0.00,VWS V14.01,2013-03-29 13:11:00,
2013-03-29 08:16:00,31.3,27.0,30.25,SSE,151,0.0,0.0,84,0.00,,,0.00,VWS V14.01,2013-03-29 13:16:00,
2013-03-29 08:22:00,31.7,27.4,30.25,SSE,151,0.0,0.0,84,0.00,,,0.00,VWS V14.01,2013-03-29 13:22:00,
2013-03-29 08:27:00,32.0,27.4,30.25,SSE,151,0.0,0.0,83,0.00,,,0.00,VWS V14.01,2013-03-29 13:27:00,
2013-03-29 08:33:00,32.3,27.7,30.25,SSE,152,0.0,0.0,83,0.00,,,0.00,VWS V14.01,2013-03-29 13:33:00,
2013-03-29 08:38:00,32.6,27.7,30.25,SSE,151,0.0,0.0,82,0.00,,,0.00,VWS V14.01,2013-03-29 13:38:00,
2013-03-29 08:43:00,32.8,27.9,30.25,SSE,151,0.0,0.0,82,0.00,,,0.00,VWS V14.01,2013-03-29 13:43:00,
2013-03-29 08:48:00,33.2,28.3,30.25,SSE,151,0.0,0.0,82,0.00,,,0.00,VWS V14.01,2013-03-29 13:48:00,
2013-03-29 08:54:00,33.5,28.6,30.25,SSE,152,0.0,0.0,82,0.00,,,0.00,VWS V14.01,2013-03-29 13:54:00,
2013-03-29 08:59:00,33.7,28.8,30.25,SSE,152,0.0,0.0,82,0.00,,,0.00,VWS V14.01,2013-03-29 13:59:00,
2013-03-29 09:04:00,33.8,28.9,30.25,SSE,151,0.0,0.0,82,0.00,,OVC050,0.00,VWS V14.01,2013-03-29 14:04:00,
2013-03-29 09:10:00,33.9,29.0,30.25,SSE,151,1.0,1.0,82,0.00,,OVC050,0.00,VWS V14.01,2013-03-29 14:10:00,
2013-03-29 09:15:00,34.0,28.8,30.25,SSE,152,0.0,0.0,81,0.00,,OVC050,0.00,VWS V14.01,2013-03-29 14:15:00,
2013-03-29 09:20:00,34.1,28.6,30.25,SSE,152,0.0,0.0,80,0.00,,OVC050,0.00,VWS V14.01,2013-03-29 14:20:00,
2013-03-29 09:25:00,34.2,29.0,30.24,SSE,151,0.0,1.0,81,0.00,,OVC050,0.00,VWS V14.01,2013-03-29 14:25:00,
2013-03-29 09:30:00,34.3,29.1,30.25,SSE,152,0.0,0.0,81,0.00,,OVC050,0.00,VWS V14.01,2013-03-29 14:30:00,
2013-03-29 09:35:00,34.4,28.9,30.24,SSE,151,0.0,0.0,80,0.00,,OVC050,0.00,VWS V14.01,2013-03-29 14:35:00,
2013-03-29 09:40:00,34.8,29.6,30.24,SSE,152,0.0,0.0,81,0.00,,OVC050,0.00,VWS V14.01,2013-03-29 14:40:00,
2013-03-29 09:45:00,35.4,30.2,30.24,SSE,152,0.0,0.0,81,0.00,,RA,0.00,VWS V14.01,2013-03-29 14:45:00,
2013-03-29 09:51:00,36.3,30.4,30.24,SSE,151,0.0,1.0,79,0.00,,RA,0.00,VWS V14.01,2013-03-29 14:51:00,
2013-03-29 09:56:00,37.0,31.1,30.24,SSE,151,0.0,0.0,79,0.00,,RA,0.00,VWS V14.01,2013-03-29 14:56:00,
2013-03-29 10:02:00,37.5,31.0,30.24,SSE,152,0.0,1.0,77,0.00,,SCT050,0.00,VWS V14.01,2013-03-29 15:02:00,
2013-03-29 10:08:00,37.7,30.8,30.25,SSE,152,0.0,0.0,76,0.00,,SCT050,0.00,VWS V14.01,2013-03-29 15:08:00,
2013-03-29 10:13:00,37.9,31.0,30.25,SSE,152,0.0,0.0,76,0.00,,SCT050,0.00,VWS V14.01,2013-03-29 15:13:00,
2013-03-29 10:18:00,38.0,31.1,30.24,SSE,151,0.0,0.0,76,0.00,,SCT050,0.00,VWS V14.01,2013-03-29 15:18:00,
2013-03-29 10:23:00,38.1,31.2,30.24,SSE,151,0.0,1.0,76,0.00,,BKN050,0.00,VWS V14.01,2013-03-29 15:23:00,
2013-03-29 10:28:00,38.3,31.4,30.25,SSE,152,0.0,0.0,76,0.00,,BKN050,0.00,VWS V14.01,2013-03-29 15:28:00,
2013-03-29 10:34:00,38.6,31.7,30.24,SSE,151,0.0,0.0,76,0.00,,BKN050,0.00,VWS V14.01,2013-03-29 15:34:00,
2013-03-29 10:40:00,38.9,31.7,30.24,SSE,151,0.0,0.0,75,0.00,,BKN050,0.00,VWS V14.01,2013-03-29 15:40:00,
2013-03-29 10:45:00,39.2,31.6,30.24,SSE,151,0.0,0.0,74,0.00,,BKN050,0.00,VWS V14.01,2013-03-29 15:45:00,
2013-03-29 10:50:00,39.5,31.6,30.24,SSE,152,0.0,0.0,73,0.00,,BKN050,0.00,VWS V14.01,2013-03-29 15:50:00,
2013-03-29 10:56:00,39.7,31.8,30.24,SSE,152,0.0,0.0,73,0.00,,BKN050,0.00,VWS V14.01,2013-03-29 15:56:00,
2013-03-29 11:02:00,40.2,32.2,30.24,SSE,152,0.0,1.0,73,0.00,,CLR,0.00,VWS V14.01,2013-03-29 16:02:00,
2013-03-29 11:07:00,40.6,32.0,30.24,SSE,152,0.0,0.0,71,0.00,,CLR,0.00,VWS V14.01,2013-03-29 16:07:00,
2013-03-29 11:12:00,40.8,32.1,30.24,SSE,152,0.0,0.0,71,0.00,,CLR,0.00,VWS V14.01,2013-03-29 16:12:00,
2013-03-29 11:18:00,41.0,32.3,30.24,SSE,151,0.0,0.0,71,0.00,,CLR,0.00,VWS V14.01,2013-03-29 16:18:00,
2013-03-29 11:23:00,41.1,32.1,30.25,SSE,151,0.0,0.0,70,0.00,,SCT085,0.00,VWS V14.01,2013-03-29 16:23:00,
2013-03-29 11:28:00,41.1,32.1,30.25,SSE,152,0.0,1.0,70,0.00,,SCT085,0.00,VWS V14.01,2013-03-29 16:28:00,
2013-03-29 11:33:00,41.3,32.3,30.25,SSE,152,0.0,0.0,70,0.00,,SCT085,0.00,VWS V14.01,2013-03-29 16:33:00,
2013-03-29 11:39:00,41.3,32.3,30.25,SSE,151,0.0,0.0,70,0.00,,SCT085,0.00,VWS V14.01,2013-03-29 16:39:00,
2013-03-29 11:44:00,41.2,32.5,30.24,SSE,152,0.0,0.0,71,0.00,,SCT085,0.00,VWS V14.01,2013-03-29 16:44:00,
2013-03-29 11:49:00,41.2,32.5,30.24,SSE,151,0.0,0.0,71,0.00,,SCT085,0.00,VWS V14.01,2013-03-29 16:49:00,
2013-03-29 11:54:00,41.5,32.8,30.24,SSE,151,0.0,0.0,71,0.00,,SCT085,0.00,VWS V14.01,2013-03-29 16:54:00,
2013-03-29 12:00:00,42.0,32.9,30.24,SSE,151,0.0,0.0,70,0.00,,SCT085,0.00,VWS V14.01,2013-03-29 17:00:00,
2013-03-29 12:05:00,42.3,32.9,30.24,SSE,151,0.0,0.0,69,0.00,,SCT060,0.00,VWS V14.01,2013-03-29 17:05:00,
2013-03-29 12:11:00,42.6,32.8,30.23,SSE,152,0.0,0.0,68,0.00,,SCT060,0.00,VWS V14.01,2013-03-29 17:11:00,
2013-03-29 12:16:00,42.6,33.2,30.23,SSE,151,0.0,1.0,69,0.00,,SCT060,0.00,VWS V14.01,2013-03-29 17:16:00,
2013-03-29 12:21:00,43.1,33.6,30.23,SSE,152,0.0,0.0,69,0.00,,SCT080,0.00,VWS V14.01,2013-03-29 17:21:00,
2013-03-29 12:26:00,43.6,33.8,30.23,SSE,152,0.0,1.0,68,0.00,,SCT080,0.00,VWS V14.01,2013-03-29 17:26:00,
2013-03-29 12:31:00,44.2,34.3,30.23,SSE,152,0.0,0.0,68,0.00,,SCT080,0.00,VWS V14.01,2013-03-29 17:31:00,
2013-03-29 12:36:00,44.7,33.7,30.23,SSE,152,0.0,0.0,65,0.00,,SCT080,0.00,VWS V14.01,2013-03-29 17:36:00,
2013-03-29 12:41:00,45.0,34.0,30.23,SE,128,0.0,0.0,65,0.00,,SCT080,0.00,VWS V14.01,2013-03-29 17:41:00,
2013-03-29 12:46:00,45.2,34.2,30.23,SE,128,0.0,0.0,65,0.00,,SCT080,0.00,VWS V14.01,2013-03-29 17:46:00,
2013-03-29 12:51:00,45.3,34.2,30.23,SE,128,0.0,0.0,65,0.00,,SCT080,0.00,VWS V14.01,2013-03-29 17:51:00,
2013-03-29 12:57:00,45.7,33.8,30.23,SE,128,0.0,1.0,63,0.00,,SCT080,0.00,VWS V14.01,2013-03-29 17:57:00,
2013-03-29 13:02:00,45.9,34.4,30.23,SE,128,0.0,0.0,64,0.00,,SCT090,0.00,VWS V14.01,2013-03-29 18:02:00,
2013-03-29 13:08:00,45.9,34.8,30.23,SE,128,0.0,0.0,65,0.00,,SCT090,0.00,VWS V14.01,2013-03-29 18:08:00,
2013-03-29 13:13:00,46.0,34.9,30.23,SE,128,0.0,0.0,65,0.00,,SCT090,0.00,VWS V14.01,2013-03-29 18:13:00,
2013-03-29 13:18:00,46.2,35.1,30.22,SE,128,0.0,0.0,65,0.00,,SCT090,0.00,VWS V14.01,2013-03-29 18:18:00,
2013-03-29 13:24:00,46.5,35.0,30.22,SE,128,0.0,0.0,64,0.00,,SCT100,0.00,VWS V14.01,2013-03-29 18:24:00,
2013-03-29 13:30:00,46.8,35.7,30.22,SE,128,0.0,0.0,65,0.00,,SCT100,0.00,VWS V14.01,2013-03-29 18:30:00,
2013-03-29 13:35:00,46.7,35.2,30.22,SE,128,0.0,0.0,64,0.00,,SCT100,0.00,VWS V14.01,2013-03-29 18:35:00,
2013-03-29 13:40:00,46.6,35.1,30.21,SE,128,0.0,0.0,64,0.00,,SCT100,0.00,VWS V14.01,2013-03-29 18:40:00,
2013-03-29 13:45:00,46.7,35.2,30.21,SE,128,0.0,0.0,64,0.00,,CLR,0.00,VWS V14.01,2013-03-29 18:45:00,
2013-03-29 13:50:00,46.7,35.2,30.21,SE,128,0.0,1.0,64,0.00,,CLR,0.00,VWS V14.01,2013-03-29 18:50:00,
2013-03-29 13:56:00,46.9,36.2,30.21,SE,128,0.0,0.0,66,0.00,,CLR,0.00,VWS V14.01,2013-03-29 18:56:00,
2013-03-29 14:01:00,47.0,35.9,30.21,SE,128,0.0,0.0,65,0.00,,CLR,0.00,VWS V14.01,2013-03-29 19:01:00,
2013-03-29 14:06:00,47.0,35.9,30.20,SE,128,0.0,0.0,65,0.00,,CLR,0.00,VWS V14.01,2013-03-29 19:06:00,
2013-03-29 14:11:00,46.9,35.8,30.20,SE,128,0.0,0.0,65,0.00,,CLR,0.00,VWS V14.01,2013-03-29 19:11:00,
2013-03-29 14:16:00,46.9,36.2,30.20,SE,128,0.0,0.0,66,0.00,,CLR,0.00,VWS V14.01,2013-03-29 19:16:00,
2013-03-29 14:21:00,47.0,35.9,30.20,SE,128,0.0,0.0,65,0.00,,CLR,0.00,VWS V14.01,2013-03-29 19:21:00,
2013-03-29 14:27:00,47.3,36.2,30.20,SE,128,0.0,0.0,65,0.00,,CLR,0.00,VWS V14.01,2013-03-29 19:27:00,
2013-03-29 14:32:00,47.2,36.4,30.20,SE,128,0.0,0.0,66,0.00,,CLR,0.00,VWS V14.01,2013-03-29 19:32:00,
2013-03-29 14:38:00,47.2,36.8,30.19,SE,128,0.0,0.0,67,0.00,,CLR,0.00,VWS V14.01,2013-03-29 19:38:00,
2013-03-29 14:44:00,47.5,36.7,30.19,SE,128,0.0,0.0,66,0.00,,CLR,0.00,VWS V14.01,2013-03-29 19:44:00,
2013-03-29 14:49:00,47.6,36.8,30.19,SE,128,0.0,1.0,66,0.00,,CLR,0.00,VWS V14.01,2013-03-29 19:49:00,
2013-03-29 14:54:00,47.7,36.9,30.19,SE,128,0.0,0.0,66,0.00,,CLR,0.00,VWS V14.01,2013-03-29 19:54:00,
2013-03-29 14:59:00,47.8,36.6,30.19,SE,128,0.0,0.0,65,0.00,,CLR,0.00,VWS V14.01,2013-03-29 19:59:00,
2013-03-29 15:05:00,48.1,36.9,30.18,SE,128,0.0,0.0,65,0.00,,CLR,0.00,VWS V14.01,2013-03-29 20:05:00,
2013-03-29 15:10:00,48.4,37.2,30.18,SE,128,0.0,0.0,65,0.00,,CLR,0.00,VWS V14.01,2013-03-29 20:10:00,
2013-03-29 15:15:00,48.5,36.9,30.18,SE,128,0.0,0.0,64,0.00,,CLR,0.00,VWS V14.01,2013-03-29 20:15:00,
2013-03-29 15:21:00,48.5,36.9,30.18,SE,128,0.0,0.0,64,0.00,,CLR,0.00,VWS V14.01,2013-03-29 20:21:00,
2013-03-29 15:26:00,48.8,37.6,30.18,SSE,150,0.0,0.0,65,0.00,,CLR,0.00,VWS V14.01,2013-03-29 20:26:00,
2013-03-29 15:31:00,49.0,37.0,30.18,SSE,150,0.0,0.0,63,0.00,,CLR,0.00,VWS V14.01,2013-03-29 20:31:00,
2013-03-29 15:36:00,49.2,37.6,30.18,SSE,150,0.0,4.0,64,0.00,,CLR,0.00,VWS V14.01,2013-03-29 20:36:00,
2013-03-29 15:41:00,49.2,38.0,30.18,SSE,161,0.0,1.0,65,0.00,,SCT090,0.00,VWS V14.01,2013-03-29 20:41:00,
2013-03-29 15:46:00,49.2,37.6,30.18,SSE,159,0.0,5.0,64,0.00,,SCT090,0.00,VWS V14.01,2013-03-29 20:46:00,
2013-03-29 15:51:00,49.0,37.8,30.17,SSE,159,0.0,0.0,65,0.00,,SCT090,0.00,VWS V14.01,2013-03-29 20:51:00,
2013-03-29 15:56:00,48.9,37.7,30.17,SSE,159,0.0,4.0,65,0.00,,SCT090,0.00,VWS V14.01,2013-03-29 20:56:00,
2013-03-29 16:01:00,48.7,37.9,30.17,SSE,150,0.0,4.0,66,0.00,,BKN090,0.00,VWS V14.01,2013-03-29 21:01:00,
2013-03-29 16:06:00,48.4,37.6,30.17,SSE,150,0.0,2.0,66,0.00,,BKN090,0.00,VWS V14.01,2013-03-29 21:06:00,
2013-03-29 16:11:00,48.1,37.7,30.17,SSE,154,2.0,4.0,67,0.00,,BKN090,0.00,VWS V14.01,2013-03-29 21:11:00,
2013-03-29 16:17:00,47.8,37.4,30.16,SSE,154,0.0,0.0,67,0.00,,BKN090,0.00,VWS V14.01,2013-03-29 21:17:00,
2013-03-29 16:22:00,47.3,36.9,30.16,SSE,154,0.0,0.0,67,0.00,,BKN110,0.00,VWS V14.01,2013-03-29 21:22:00,
2013-03-29 16:27:00,46.8,36.8,30.16,SSE,154,0.0,0.0,68,0.00,,BKN110,0.00,VWS V14.01,2013-03-29 21:27:00,
2013-03-29 16:33:00,46.4,36.8,30.16,SSE,154,0.0,0.0,69,0.00,,BKN110,0.00,VWS V14.01,2013-03-29 21:33:00,
2013-03-29 16:38:00,46.0,36.8,30.16,SSE,154,0.0,0.0,70,0.00,,BKN110,0.00,VWS V14.01,2013-03-29 21:38:00,
2013-03-29 16:43:00,45.6,36.8,30.15,SSE,154,0.0,0.0,71,0.00,,SCT100,0.00,VWS V14.01,2013-03-29 21:43:00,
2013-03-29 16:48:00,45.3,36.8,30.15,SSE,154,0.0,0.0,72,0.00,,SCT100,0.00,VWS V14.01,2013-03-29 21:48:00,
2013-03-29 16:53:00,45.0,36.5,30.15,SSE,154,0.0,0.0,72,0.00,,SCT100,0.00,VWS V14.01,2013-03-29 21:53:00,
2013-03-29 16:58:00,45.0,36.9,30.15,SSE,154,0.0,0.0,73,0.00,,SCT100,0.00,VWS V14.01,2013-03-29 21:58:00,
2013-03-29 17:03:00,45.2,37.4,30.15,SSE,154,0.0,0.0,74,0.00,,SCT110,0.00,VWS V14.01,2013-03-29 22:03:00,
2013-03-29 17:08:00,45.4,37.6,30.15,SSE,154,0.0,0.0,74,0.00,,SCT110,0.00,VWS V14.01,2013-03-29 22:08:00,
2013-03-29 17:14:00,45.6,37.5,30.14,SSE,154,0.0,0.0,73,0.00,,SCT110,0.00,VWS V14.01,2013-03-29 22:14:00,
2013-03-29 17:19:00,45.7,37.5,30.14,SSE,154,0.0,0.0,73,0.00,,SCT110,0.00,VWS V14.01,2013-03-29 22:19:00,
2013-03-29 17:25:00,45.6,37.5,30.14,SSE,154,0.0,0.0,73,0.00,,SCT110,0.00,VWS V14.01,2013-03-29 22:25:00,
2013-03-29 17:30:00,45.6,37.5,30.14,SSE,154,0.0,0.0,73,0.00,,SCT110,0.00,VWS V14.01,2013-03-29 22:30:00,
2013-03-29 17:35:00,45.6,37.5,30.14,SSE,154,0.0,0.0,73,0.00,,SCT110,0.00,VWS V14.01,2013-03-29 22:35:00,
2013-03-29 17:40:00,45.5,37.4,30.14,SSE,154,0.0,0.0,73,0.00,,SCT110,0.00,VWS V14.01,2013-03-29 22:40:00,
2013-03-29 17:46:00,45.5,37.4,30.14,SSE,154,0.0,0.0,73,0.00,,SCT100,0.00,VWS V14.01,2013-03-29 22:46:00,
2013-03-29 17:51:00,45.4,37.6,30.14,SSE,154,0.0,0.0,74,0.00,,SCT100,0.00,VWS V14.01,2013-03-29 22:51:00,
2013-03-29 17:56:00,45.3,37.5,30.14,SSE,154,0.0,0.0,74,0.00,,SCT100,0.00,VWS V14.01,2013-03-29 22:56:00,
2013-03-29 18:02:00,45.1,37.3,30.13,SSE,154,0.0,0.0,74,0.00,,SCT100,0.00,VWS V14.01,2013-03-29 23:02:00,
2013-03-29 18:08:00,44.9,37.5,30.13,SSE,154,0.0,0.0,75,0.00,,SCT100,0.00,VWS V14.01,2013-03-29 23:08:00,
2013-03-29 18:13:00,44.7,37.3,30.13,SSE,154,0.0,0.0,75,0.00,,SCT100,0.00,VWS V14.01,2013-03-29 23:13:00,
2013-03-29 18:18:00,44.4,37.0,30.13,SSE,154,0.0,0.0,75,0.00,,SCT100,0.00,VWS V14.01,2013-03-29 23:18:00,
2013-03-29 18:24:00,44.1,37.0,30.12,SSE,154,0.0,0.0,76,0.00,,CLR,0.00,VWS V14.01,2013-03-29 23:24:00,
2013-03-29 18:29:00,43.9,36.8,30.13,SSE,154,0.0,0.0,76,0.00,,CLR,0.00,VWS V14.01,2013-03-29 23:29:00,
2013-03-29 18:34:00,43.6,36.5,30.12,SSE,154,0.0,0.0,76,0.00,,CLR,0.00,VWS V14.01,2013-03-29 23:34:00,
2013-03-29 18:39:00,43.4,36.7,30.12,SSE,154,0.0,0.0,77,0.00,,CLR,0.00,VWS V14.01,2013-03-29 23:39:00,
2013-03-29 18:44:00,43.2,36.8,30.12,SSE,154,0.0,0.0,78,0.00,,CLR,0.00,VWS V14.01,2013-03-29 23:44:00,
2013-03-29 18:49:00,43.0,36.6,30.12,SSE,154,0.0,0.0,78,0.00,,CLR,0.00,VWS V14.01,2013-03-29 23:49:00,
2013-03-29 18:55:00,42.7,36.7,30.12,SSE,154,0.0,0.0,79,0.00,,CLR,0.00,VWS V14.01,2013-03-29 23:55:00,
2013-03-29 19:01:00,42.4,36.4,30.12,SSE,154,0.0,0.0,79,0.00,,CLR,0.00,VWS V14.01,2013-03-30 00:01:00,
2013-03-29 19:06:00,42.1,36.4,30.12,SSE,154,0.0,0.0,80,0.00,,CLR,0.00,VWS V14.01,2013-03-30 00:06:00,
2013-03-29 19:11:00,41.8,36.1,30.12,SSE,154,0.0,0.0,80,0.00,,CLR,0.00,VWS V14.01,2013-03-30 00:11:00,
2013-03-29 19:16:00,41.6,36.2,30.12,SSE,154,0.0,0.0,81,0.00,,CLR,0.00,VWS V14.01,2013-03-30 00:16:00,
2013-03-29 19:22:00,41.3,36.2,30.12,SSE,154,0.0,0.0,82,0.00,,CLR,0.00,VWS V14.01,2013-03-30 00:22:00,
2013-03-29 19:27:00,41.0,35.9,30.12,SSE,154,0.0,0.0,82,0.00,,CLR,0.00,VWS V14.01,2013-03-30 00:27:00,
2013-03-29 19:32:00,40.6,35.8,30.12,SSE,154,0.0,0.0,83,0.00,,CLR,0.00,VWS V14.01,2013-03-30 00:32:00,
2013-03-29 19:38:00,40.2,35.5,30.12,SSE,154,0.0,0.0,83,0.00,,CLR,0.00,VWS V14.01,2013-03-30 00:38:00,
2013-03-29 19:43:00,39.9,35.5,30.12,SSE,154,0.0,0.0,84,0.00,,CLR,0.00,VWS V14.01,2013-03-30 00:43:00,
2013-03-29 19:48:00,39.6,35.2,30.11,SSE,154,0.0,0.0,84,0.00,,CLR,0.00,VWS V14.01,2013-03-30 00:48:00,
2013-03-29 19:54:00,39.2,35.1,30.11,SSE,154,0.0,0.0,85,0.00,,CLR,0.00,VWS V14.01,2013-03-30 00:54:00,
2013-03-29 19:59:00,38.8,34.7,30.11,SSE,154,0.0,0.0,85,0.00,,CLR,0.00,VWS V14.01,2013-03-30 00:59:00,
2013-03-29 20:04:00,38.5,34.7,30.11,SSE,154,0.0,0.0,86,0.00,,CLR,0.00,VWS V14.01,2013-03-30 01:04:00,
2013-03-29 20:09:00,38.3,34.8,30.11,SSE,154,0.0,0.0,87,0.00,,CLR,0.00,VWS V14.01,2013-03-30 01:09:00,
2013-03-29 20:15:00,38.0,34.8,30.11,SSE,154,0.0,0.0,88,0.00,,CLR,0.00,VWS V14.01,2013-03-30 01:15:00,
2013-03-29 20:20:00,37.9,34.7,30.11,SSE,154,0.0,0.0,88,0.00,,CLR,0.00,VWS V14.01,2013-03-30 01:20:00,
2013-03-29 20:25:00,37.7,34.8,30.11,SSE,154,0.0,0.0,89,0.00,,CLR,0.00,VWS V14.01,2013-03-30 01:25:00,
2013-03-29 20:30:00,37.5,34.6,30.11,SSE,154,0.0,0.0,89,0.00,,CLR,0.00,VWS V14.01,2013-03-30 01:30:00,
2013-03-29 20:36:00,37.4,34.5,30.11,SSE,154,0.0,0.0,89,0.00,,CLR,0.00,VWS V14.01,2013-03-30 01:36:00,
2013-03-29 20:41:00,37.2,34.5,30.11,SSE,154,0.0,0.0,90,0.00,,CLR,0.00,VWS V14.01,2013-03-30 01:41:00,
2013-03-29 20:46:00,37.1,34.4,30.11,SSE,154,0.0,0.0,90,0.00,,CLR,0.00,VWS V14.01,2013-03-30 01:46:00,
2013-03-29 20:51:00,37.0,34.3,30.11,SSE,154,0.0,0.0,90,0.00,,CLR,0.00,VWS V14.01,2013-03-30 01:51:00,
2013-03-29 20:56:00,36.9,34.5,30.11,SSE,154,0.0,0.0,91,0.00,,CLR,0.00,VWS V14.01,2013-03-30 01:56:00,
2013-03-29 21:01:00,36.8,34.4,30.10,SSE,154,0.0,0.0,91,0.00,,CLR,0.00,VWS V14.01,2013-03-30 02:01:00,
2013-03-29 21:07:00,36.8,34.4,30.10,SSE,154,0.0,0.0,91,0.00,,CLR,0.00,VWS V14.01,2013-03-30 02:07:00,
2013-03-29 21:13:00,36.6,34.2,30.10,SSE,154,0.0,0.0,91,0.00,,CLR,0.00,VWS V14.01,2013-03-30 02:13:00,
2013-03-29 21:18:00,36.5,34.1,30.10,SSE,154,0.0,0.0,91,0.00,,CLR,0.00,VWS V14.01,2013-03-30 02:18:00,
2013-03-29 21:24:00,36.5,34.4,30.10,SSE,154,0.0,0.0,92,0.00,,SCT110,0.00,VWS V14.01,2013-03-30 02:24:00,
2013-03-29 21:29:00,36.5,34.4,30.10,SSE,154,0.0,0.0,92,0.00,,SCT110,0.00,VWS V14.01,2013-03-30 02:29:00,
2013-03-29 21:35:00,36.6,34.5,30.10,SSE,154,0.0,0.0,92,0.00,,SCT110,0.00,VWS V14.01,2013-03-30 02:35:00,
2013-03-29 21:40:00,36.6,34.5,30.10,SSE,154,0.0,0.0,92,0.00,,SCT110,0.00,VWS V14.01,2013-03-30 02:40:00,
2013-03-29 21:45:00,36.6,34.5,30.10,SSE,154,0.0,0.0,92,0.00,,SCT110,0.00,VWS V14.01,2013-03-30 02:45:00,
2013-03-29 21:50:00,36.7,34.6,30.10,SSE,154,0.0,0.0,92,0.00,,SCT110,0.00,VWS V14.01,2013-03-30 02:50:00,
2013-03-29 21:55:00,36.7,34.6,30.10,SSE,154,0.0,0.0,92,0.00,,SCT110,0.00,VWS V14.01,2013-03-30 02:55:00,
2013-03-29 22:01:00,36.7,34.6,30.10,SSE,154,0.0,0.0,92,0.00,,BKN110,0.00,VWS V14.01,2013-03-30 03:01:00,
2013-03-29 22:06:00,36.8,34.7,30.10,SSE,154,0.0,0.0,92,0.00,,BKN110,0.00,VWS V14.01,2013-03-30 03:06:00,
2013-03-29 22:11:00,36.8,34.7,30.10,SSE,154,0.0,0.0,92,0.00,,BKN110,0.00,VWS V14.01,2013-03-30 03:11:00,
2013-03-29 22:16:00,36.9,34.8,30.10,SSE,154,0.0,0.0,92,0.00,,BKN110,0.00,VWS V14.01,2013-03-30 03:16:00,
2013-03-29 22:21:00,37.0,34.9,30.10,SSE,154,0.0,0.0,92,0.00,,BKN110,0.00,VWS V14.01,2013-03-30 03:21:00,
2013-03-29 22:26:00,37.1,35.0,30.09,SSE,154,0.0,0.0,92,0.00,,OVC100,0.00,VWS V14.01,2013-03-30 03:26:00,
2013-03-29 22:32:00,37.1,34.7,30.09,SSE,154,0.0,0.0,91,0.00,,OVC100,0.00,VWS V14.01,2013-03-30 03:32:00,
2013-03-29 22:38:00,37.1,34.7,30.09,SSE,154,0.0,0.0,91,0.00,,OVC100,0.00,VWS V14.01,2013-03-30 03:38:00,
2013-03-29 22:43:00,37.2,34.8,30.09,SSE,154,0.0,0.0,91,0.00,,BKN110,0.00,VWS V14.01,2013-03-30 03:43:00,
2013-03-29 22:49:00,37.3,34.9,30.09,SSE,154,0.0,0.0,91,0.00,,BKN110,0.00,VWS V14.01,2013-03-30 03:49:00,
2013-03-29 22:54:00,37.4,35.0,30.09,SSE,154,0.0,0.0,91,0.00,,BKN110,0.00,VWS V14.01,2013-03-30 03:54:00,
2013-03-29 22:59:00,37.4,34.7,30.09,SSE,154,0.0,0.0,90,0.00,,BKN110,0.00,VWS V14.01,2013-03-30 03:59:00,
2013-03-29 23:01:00,37.4,34.7,30.08,SSE,154,0.0,0.0,90,0.00,,SCT090,0.00,VWS V14.01,2013-03-30 04:01:00,
2013-03-29 23:04:00,37.4,35.0,30.08,SSE,154,1.0,1.0,91,0.00,,SCT090,0.00,VWS V14.01,2013-03-30 04:04:00,
2013-03-29 23:09:00,37.5,35.1,30.08,SSE,154,0.0,0.0,91,0.00,,SCT090,0.00,VWS V14.01,2013-03-30 04:09:00,
2013-03-29 23:10:00,37.5,34.8,30.08,SSE,154,0.0,0.0,90,0.00,,SCT090,0.00,VWS V14.01,2013-03-30 04:10:00,
2013-03-29 23:11:00,37.5,34.8,30.08,SSE,154,0.0,0.0,90,0.00,,SCT090,0.00,VWS V14.01,2013-03-30 04:11:00,
2013-03-29 23:17:00,37.7,35.0,30.08,SSE,154,0.0,0.0,90,0.00,,SCT090,0.00,VWS V14.01,2013-03-30 04:17:00,
2013-03-29 23:22:00,37.8,35.1,30.08,SSE,154,0.0,0.0,90,0.00,,SCT110,0.00,VWS V14.01,2013-03-30 04:22:00,
2013-03-29 23:28:00,37.9,35.2,30.07,SSE,154,0.0,0.0,90,0.00,,SCT110,0.00,VWS V14.01,2013-03-30 04:28:00,
2013-03-29 23:33:00,38.0,35.0,30.07,SSE,154,0.0,1.0,89,0.00,,SCT110,0.00,VWS V14.01,2013-03-30 04:33:00,
2013-03-29 23:38:00,38.0,35.0,30.07,SSE,154,0.0,0.0,89,0.00,,SCT110,0.00,VWS V14.01,2013-03-30 04:38:00,
2013-03-29 23:44:00,38.0,35.0,30.07,SSE,154,0.0,0.0,89,0.00,,SCT110,0.00,VWS V14.01,2013-03-30 04:44:00,
2013-03-29 23:49:00,38.0,35.0,30.06,SSE,154,0.0,0.0,89,0.00,,SCT110,0.00,VWS V14.01,2013-03-30 04:49:00,
2013-03-29 23:55:00,38.0,35.0,30.06,SSE,154,0.0,0.0,89,0.00,,SCT110,0.00,VWS V14.01,2013-03-30 04:55:00,